| time (UTC) | temp F | wind direction | speed MPH | gust MPH | rain 1hr in | rain 24hr in | rain mn in | humidity % | barometer mb |
| 20260504141326 | 61 | 280 | 4.0 | 6.0 | 0.00 | 0.00 | 0.00 | 53 | 1017.7 |
| 20260504140823 | 61 | 184 | 3.0 | 3.0 | 0.00 | 0.00 | 0.00 | 56 | 1017.8 |
| 20260504140318 | 60 | 274 | 4.0 | 6.0 | 0.00 | 0.00 | 0.00 | 55 | 1017.7 |
| 20260504130748 | 53 | 204 | 2.0 | 2.0 | 0.00 | 0.00 | 0.00 | 67 | 1017.8 |
| 20260504130243 | 52 | 168 | 0.0 | 0.0 | 0.00 | 0.00 | 0.00 | 64 | 1017.8 |
| 20260504120207 | 42 | 165 | 1.0 | 1.0 | 0.00 | 0.00 | 0.00 | 95 | 1017.7 |
| 20260504110635 | 37 | 140 | 0.0 | 1.0 | 0.00 | 0.00 | 0.00 | 99 | 1017.7 |
| 20260504110131 | 37 | 169 | 0.0 | 0.0 | 0.00 | 0.00 | 0.00 | 98 | 1017.6 |
| 20260504100557 | 37 | 150 | 0.0 | 0.0 | 0.00 | 0.00 | 0.00 | 97 | 1017.4 |
| 20260504081950 | 39 | 153 | 0.0 | 0.0 | 0.00 | 0.00 | 0.00 | 96 | 1017.6 |
| 20260504081447 | 39 | 156 | 0.0 | 0.0 | 0.00 | 0.00 | 0.00 | 95 | 1017.6 |
| 20260504080943 | 39 | 150 | 0.0 | 0.0 | 0.00 | 0.00 | 0.00 | 95 | 1017.6 |
| 20260504080440 | 39 | 150 | 0.0 | 0.0 | 0.00 | 0.00 | 0.00 | 95 | 1017.5 |
| 20260504070408 | 40 | 149 | 0.0 | 0.0 | 0.00 | 0.00 | 0.00 | 93 | 1017.3 |
| 20260504050253 | 42 | 148 | 0.0 | 0.0 | 0.00 | 0.00 | 0.00 | 85 | 1018.0 |
| 20260504045745 | 42 | 151 | 0.0 | 0.0 | 0.00 | 0.00 | 0.00 | 86 | 1018.0 |
| 20260504045244 | 42 | 149 | 0.0 | 0.0 | 0.00 | 0.00 | 0.00 | 85 | 1017.8 |
| 20260504044742 | 42 | 149 | 0.0 | 0.0 | 0.00 | 0.00 | 0.00 | 85 | 1018.0 |
| 20260504044240 | 42 | 149 | 0.0 | 0.0 | 0.00 | 0.00 | 0.00 | 85 | 1017.7 |
| 20260504043737 | 43 | 149 | 0.0 | 0.0 | 0.00 | 0.00 | 0.00 | 84 | 1017.8 |
| 20260504043233 | 43 | 149 | 0.0 | 0.0 | 0.00 | 0.00 | 0.00 | 84 | 1017.7 |
| 20260504042731 | 43 | 149 | 0.0 | 0.0 | 0.00 | 0.00 | 0.00 | 82 | 1017.7 |
| 20260504042227 | 43 | 147 | 0.0 | 0.0 | 0.00 | 0.00 | 0.00 | 82 | 1017.9 |
| 20260504041724 | 43 | 149 | 0.0 | 0.0 | 0.00 | 0.00 | 0.00 | 83 | 1017.5 |
| 20260504041220 | 43 | 150 | 0.0 | 0.0 | 0.00 | 0.00 | 0.00 | 84 | 1017.7 |
| 20260504040716 | 44 | 149 | 0.0 | 0.0 | 0.00 | 0.00 | 0.00 | 83 | 1017.5 |
| 20260504040213 | 44 | 150 | 0.0 | 0.0 | 0.00 | 0.00 | 0.00 | 82 | 1017.6 |
| 20260504035709 | 43 | 138 | 0.0 | 0.0 | 0.00 | 0.00 | 0.00 | 82 | 1017.7 |
| 20260504035207 | 43 | 151 | 0.0 | 0.0 | 0.00 | 0.00 | 0.00 | 83 | 1017.6 |
| 20260504034704 | 44 | 149 | 0.0 | 0.0 | 0.00 | 0.00 | 0.00 | 82 | 1017.8 |
| 20260504034201 | 44 | 157 | 0.0 | 0.0 | 0.00 | 0.00 | 0.00 | 82 | 1017.8 |
| 20260504033659 | 44 | 151 | 0.0 | 0.0 | 0.00 | 0.00 | 0.00 | 82 | 1017.7 |
| 20260504033156 | 44 | 169 | 0.0 | 0.0 | 0.00 | 0.00 | 0.00 | 82 | 1017.7 |
| 20260504032653 | 44 | 145 | 0.0 | 0.0 | 0.00 | 0.00 | 0.00 | 82 | 1017.5 |
| 20260504032150 | 44 | 152 | 0.0 | 0.0 | 0.00 | 0.00 | 0.00 | 81 | 1017.6 |
| 20260504031647 | 44 | 149 | 0.0 | 0.0 | 0.00 | 0.00 | 0.00 | 79 | 1017.7 |
| 20260504031143 | 45 | 149 | 0.0 | 0.0 | 0.00 | 0.00 | 0.00 | 79 | 1017.6 |
| 20260504030640 | 45 | 149 | 0.0 | 0.0 | 0.00 | 0.00 | 0.00 | 78 | 1017.6 |
| 20260504030137 | 45 | 149 | 0.0 | 0.0 | 0.00 | 0.00 | 0.00 | 77 | 1017.5 |
| 20260504025633 | 45 | 149 | 0.0 | 0.0 | 0.00 | 0.00 | 0.00 | 77 | 1017.7 |
| 20260504025130 | 46 | 149 | 0.0 | 0.0 | 0.00 | 0.00 | 0.00 | 76 | 1017.5 |
| 20260504024628 | 46 | 149 | 0.0 | 0.0 | 0.00 | 0.00 | 0.00 | 75 | 1017.6 |
| 20260504024124 | 46 | 150 | 0.0 | 0.0 | 0.00 | 0.00 | 0.00 | 75 | 1017.7 |
| 20260504023621 | 46 | 149 | 0.0 | 0.0 | 0.00 | 0.00 | 0.00 | 76 | 1017.6 |
| 20260504023117 | 46 | 149 | 0.0 | 0.0 | 0.00 | 0.00 | 0.00 | 76 | 1017.5 |
| 20260504022613 | 46 | 150 | 0.0 | 0.0 | 0.00 | 0.00 | 0.00 | 76 | 1017.6 |
| 20260504022109 | 46 | 149 | 0.0 | 0.0 | 0.00 | 0.00 | 0.00 | 76 | 1017.4 |
| 20260504021608 | 46 | 149 | 0.0 | 0.0 | 0.00 | 0.00 | 0.00 | 74 | 1017.6 |
| 20260504021104 | 47 | 153 | 0.0 | 0.0 | 0.00 | 0.00 | 0.00 | 73 | 1017.4 |
| 20260504020601 | 48 | 149 | 0.0 | 0.0 | 0.00 | 0.00 | 0.00 | 71 | 1017.3 |
| 20260504020057 | 48 | 149 | 0.0 | 0.0 | 0.00 | 0.00 | 0.00 | 68 | 1017.2 |
| 20260504015554 | 48 | 149 | 0.0 | 0.0 | 0.00 | 0.00 | 0.00 | 68 | 1017.2 |
| 20260504015049 | 48 | 148 | 0.0 | 0.0 | 0.00 | 0.00 | 0.00 | 67 | 1017.0 |
| 20260504014546 | 49 | 149 | 0.0 | 0.0 | 0.00 | 0.00 | 0.00 | 67 | 1017.1 |
| 20260504014043 | 49 | 147 | 0.0 | 0.0 | 0.00 | 0.00 | 0.00 | 65 | 1017.1 |
| 20260504013541 | 49 | 149 | 0.0 | 0.0 | 0.00 | 0.00 | 0.00 | 65 | 1016.9 |
| 20260504013038 | 49 | 147 | 0.0 | 0.0 | 0.00 | 0.00 | 0.00 | 66 | 1016.9 |
| 20260504012535 | 49 | 149 | 0.0 | 0.0 | 0.00 | 0.00 | 0.00 | 65 | 1016.8 |
| 20260504012033 | 49 | 147 | 0.0 | 0.0 | 0.00 | 0.00 | 0.00 | 65 | 1016.7 |
| 20260504011529 | 50 | 147 | 0.0 | 0.0 | 0.00 | 0.00 | 0.00 | 65 | 1016.6 |
| 20260504011025 | 50 | 147 | 0.0 | 0.0 | 0.00 | 0.00 | 0.00 | 64 | 1016.7 |
| 20260504010521 | 50 | 147 | 0.0 | 0.0 | 0.00 | 0.00 | 0.00 | 63 | 1016.8 |
| 20260504010017 | 51 | 147 | 0.0 | 0.0 | 0.00 | 0.00 | 0.00 | 64 | 1016.6 |
| 20260504005514 | 51 | 147 | 0.0 | 0.0 | 0.00 | 0.00 | 0.00 | 62 | 1016.6 |
| 20260504005012 | 51 | 145 | 0.0 | 0.0 | 0.00 | 0.00 | 0.00 | 61 | 1016.6 |
| 20260504004509 | 52 | 147 | 0.0 | 0.0 | 0.00 | 0.00 | 0.00 | 61 | 1016.8 |
| 20260504004006 | 53 | 141 | 0.0 | 0.0 | 0.00 | 0.00 | 0.00 | 59 | 1016.6 |
| 20260504003502 | 53 | 149 | 0.0 | 0.0 | 0.00 | 0.00 | 0.00 | 57 | 1016.4 |
| 20260504002959 | 53 | 148 | 0.0 | 0.0 | 0.00 | 0.00 | 0.00 | 56 | 1016.6 |
| 20260504002456 | 54 | 146 | 0.0 | 0.0 | 0.00 | 0.00 | 0.00 | 55 | 1016.5 |
| 20260504001953 | 55 | 147 | 0.0 | 0.0 | 0.00 | 0.00 | 0.00 | 54 | 1016.5 |
| 20260504001451 | 55 | 147 | 0.0 | 0.0 | 0.00 | 0.00 | 0.00 | 52 | 1016.4 |
| 20260504000947 | 56 | 146 | 0.0 | 0.0 | 0.00 | 0.00 | 0.00 | 51 | 1016.3 |
| 20260504000444 | 57 | 147 | 0.0 | 0.0 | 0.00 | 0.00 | 0.00 | 51 | 1016.3 |
| 20260503235942 | 59 | 140 | 0.0 | 1.0 | 0.00 | 0.00 | 0.00 | 49 | 1016.3 |
| 20260503235439 | 60 | 148 | 0.0 | 0.0 | 0.00 | 0.00 | 0.00 | 44 | 1016.1 |
| 20260503234936 | 61 | 151 | 0.0 | 1.0 | 0.00 | 0.00 | 0.00 | 45 | 1016.1 |
| 20260503234434 | 62 | 152 | 0.0 | 1.0 | 0.00 | 0.00 | 0.00 | 42 | 1016.2 |
| 20260503233932 | 62 | 151 | 1.0 | 2.0 | 0.00 | 0.00 | 0.00 | 39 | 1016.2 |
| 20260503233428 | 63 | 148 | 0.0 | 1.0 | 0.00 | 0.00 | 0.00 | 37 | 1016.1 |
| 20260503232925 | 64 | 164 | 1.0 | 1.0 | 0.00 | 0.00 | 0.00 | 37 | 1016.2 |
| 20260503232422 | 64 | 149 | 0.0 | 2.0 | 0.00 | 0.00 | 0.00 | 36 | 1016.2 |
| 20260503231920 | 64 | 162 | 1.0 | 2.0 | 0.00 | 0.00 | 0.00 | 35 | 1016.4 |
| 20260503231417 | 65 | 165 | 2.0 | 3.0 | 0.00 | 0.00 | 0.00 | 35 | 1016.3 |
| 20260503230913 | 65 | 152 | 0.0 | 1.0 | 0.00 | 0.00 | 0.00 | 34 | 1016.4 |
| 20260503230409 | 65 | 253 | 2.0 | 3.0 | 0.00 | 0.00 | 0.00 | 35 | 1016.2 |
| 20260503225908 | 65 | 160 | 2.0 | 2.0 | 0.00 | 0.00 | 0.00 | 34 | 1016.2 |
| 20260503225403 | 65 | 137 | 2.0 | 6.0 | 0.00 | 0.00 | 0.00 | 35 | 1016.5 |
| 20260503224859 | 65 | 224 | 4.0 | 6.0 | 0.00 | 0.00 | 0.00 | 35 | 1016.2 |
| 20260503224357 | 66 | 190 | 4.0 | 7.0 | 0.00 | 0.00 | 0.00 | 34 | 1016.4 |
| 20260503223854 | 65 | 162 | 2.0 | 4.0 | 0.00 | 0.00 | 0.00 | 34 | 1016.3 |
| 20260503223352 | 65 | 217 | 3.0 | 8.0 | 0.00 | 0.00 | 0.00 | 35 | 1016.3 |
| 20260503222847 | 67 | 189 | 2.0 | 8.0 | 0.00 | 0.00 | 0.00 | 33 | 1016.3 |
| 20260503222346 | 67 | 208 | 2.0 | 3.0 | 0.00 | 0.00 | 0.00 | 34 | 1016.4 |
| 20260503221844 | 66 | 160 | 1.0 | 6.0 | 0.00 | 0.00 | 0.00 | 34 | 1016.5 |
| 20260503221343 | 67 | 174 | 3.0 | 4.0 | 0.00 | 0.00 | 0.00 | 32 | 1016.5 |
| 20260503220838 | 67 | 135 | 0.0 | 3.0 | 0.00 | 0.00 | 0.00 | 31 | 1016.5 |
| 20260503220335 | 66 | 146 | 1.0 | 4.0 | 0.00 | 0.00 | 0.00 | 32 | 1016.6 |
| 20260503215832 | 66 | 152 | 2.0 | 6.0 | 0.00 | 0.00 | 0.00 | 31 | 1016.6 |
| 20260503215329 | 68 | 203 | 1.0 | 4.0 | 0.00 | 0.00 | 0.00 | 32 | 1016.6 |
| 20260503214827 | 68 | 176 | 1.0 | 3.0 | 0.00 | 0.00 | 0.00 | 30 | 1016.6 |
| 20260503214324 | 67 | 187 | 2.0 | 2.0 | 0.00 | 0.00 | 0.00 | 29 | 1016.7 |
| 20260503213821 | 67 | 172 | 3.0 | 4.0 | 0.00 | 0.00 | 0.00 | 28 | 1016.9 |
| 20260503213319 | 67 | 156 | 2.0 | 3.0 | 0.00 | 0.00 | 0.00 | 33 | 1016.8 |
| 20260503212815 | 66 | 249 | 3.0 | 6.0 | 0.00 | 0.00 | 0.00 | 31 | 1016.8 |
| 20260503212313 | 67 | 204 | 3.0 | 6.0 | 0.00 | 0.00 | 0.00 | 30 | 1016.8 |
| 20260503211810 | 66 | 220 | 2.0 | 6.0 | 0.00 | 0.00 | 0.00 | 30 | 1017.0 |
| 20260503211307 | 67 | 186 | 1.0 | 7.0 | 0.00 | 0.00 | 0.00 | 31 | 1017.1 |
| 20260503210807 | 67 | 278 | 4.0 | 10.0 | 0.00 | 0.00 | 0.00 | 31 | 1017.0 |
| 20260503210305 | 68 | 337 | 2.0 | 7.0 | 0.00 | 0.00 | 0.00 | 27 | 1016.8 |
| 20260503205800 | 68 | 103 | 2.0 | 4.0 | 0.00 | 0.00 | 0.00 | 26 | 1017.1 |
| 20260503205256 | 67 | 144 | 2.0 | 7.0 | 0.00 | 0.00 | 0.00 | 28 | 1017.0 |
| 20260503204753 | 68 | 168 | 2.0 | 3.0 | 0.00 | 0.00 | 0.00 | 27 | 1016.9 |
| 20260503204251 | 67 | 176 | 2.0 | 7.0 | 0.00 | 0.00 | 0.00 | 26 | 1017.0 |
| 20260503203748 | 67 | 281 | 5.0 | 7.0 | 0.00 | 0.00 | 0.00 | 28 | 1017.4 |
| 20260503203245 | 68 | 235 | 1.0 | 4.0 | 0.00 | 0.00 | 0.00 | 29 | 1017.1 |
| 20260503202742 | 67 | 153 | 0.0 | 6.0 | 0.00 | 0.00 | 0.00 | 27 | 1017.2 |
| 20260503202240 | 67 | 170 | 2.0 | 3.0 | 0.00 | 0.00 | 0.00 | 29 | 1017.3 |
| 20260503201738 | 67 | 276 | 3.0 | 7.0 | 0.00 | 0.00 | 0.00 | 29 | 1017.5 |
| 20260503201235 | 66 | 167 | 3.0 | 4.0 | 0.00 | 0.00 | 0.00 | 29 | 1017.3 |
| 20260503200731 | 66 | 303 | 5.0 | 7.0 | 0.00 | 0.00 | 0.00 | 31 | 1017.6 |
| 20260503200228 | 67 | 345 | 5.0 | 6.0 | 0.00 | 0.00 | 0.00 | 30 | 1017.8 |
| 20260503195724 | 66 | 195 | 4.0 | 7.0 | 0.00 | 0.00 | 0.00 | 31 | 1017.8 |
| 20260503195221 | 65 | 153 | 2.0 | 3.0 | 0.00 | 0.00 | 0.00 | 29 | 1017.8 |
| 20260503194719 | 64 | 168 | 1.0 | 7.0 | 0.00 | 0.00 | 0.00 | 28 | 1018.0 |
| 20260503194215 | 66 | 62 | 4.0 | 7.0 | 0.00 | 0.00 | 0.00 | 29 | 1018.0 |
| 20260503193711 | 66 | 233 | 8.0 | 10.0 | 0.00 | 0.00 | 0.00 | 30 | 1018.1 |
| 20260503193207 | 66 | 303 | 4.0 | 6.0 | 0.00 | 0.00 | 0.00 | 30 | 1017.9 |
| 20260503192703 | 65 | 220 | 4.0 | 8.0 | 0.00 | 0.00 | 0.00 | 29 | 1018.2 |
| 20260503192158 | 64 | 152 | 0.0 | 4.0 | 0.00 | 0.00 | 0.00 | 30 | 1018.1 |
| 20260503191655 | 66 | 220 | 5.0 | 6.0 | 0.00 | 0.00 | 0.00 | 31 | 1018.2 |
| 20260503191152 | 64 | 163 | 2.0 | 7.0 | 0.00 | 0.00 | 0.00 | 28 | 1018.4 |
| 20260503190649 | 64 | 275 | 4.0 | 9.0 | 0.00 | 0.00 | 0.00 | 32 | 1018.4 |
| 20260503190146 | 65 | 250 | 2.0 | 4.0 | 0.00 | 0.00 | 0.00 | 31 | 1018.5 |
| 20260503185643 | 65 | 303 | 3.0 | 6.0 | 0.00 | 0.00 | 0.00 | 32 | 1018.4 |
| 20260503185138 | 64 | 339 | 6.0 | 7.0 | 0.00 | 0.00 | 0.00 | 31 | 1018.5 |
| 20260503184633 | 63 | 160 | 1.0 | 4.0 | 0.00 | 0.00 | 0.00 | 33 | 1018.9 |
| 20260503184130 | 64 | 290 | 5.0 | 8.0 | 0.00 | 0.00 | 0.00 | 32 | 1018.6 |
| 20260503183626 | 64 | 157 | 0.0 | 6.0 | 0.00 | 0.00 | 0.00 | 33 | 1018.8 |
| 20260503183124 | 62 | 254 | 3.0 | 7.0 | 0.00 | 0.00 | 0.00 | 33 | 1018.9 |
| 20260503182622 | 63 | 219 | 4.0 | 6.0 | 0.00 | 0.00 | 0.00 | 30 | 1018.9 |
| 20260503182120 | 62 | 223 | 6.0 | 10.0 | 0.00 | 0.00 | 0.00 | 32 | 1019.0 |
| 20260503181616 | 62 | 267 | 3.0 | 4.0 | 0.00 | 0.00 | 0.00 | 34 | 1019.1 |
| 20260503181113 | 63 | 336 | 5.0 | 7.0 | 0.00 | 0.00 | 0.00 | 30 | 1019.1 |
| 20260503180610 | 63 | 260 | 3.0 | 8.0 | 0.00 | 0.00 | 0.00 | 29 | 1019.4 |
| 20260503180108 | 62 | 220 | 4.0 | 10.0 | 0.00 | 0.00 | 0.00 | 31 | 1019.2 |
| 20260503175605 | 62 | 127 | 0.0 | 7.0 | 0.00 | 0.00 | 0.00 | 30 | 1019.3 |
| 20260503175102 | 63 | 289 | 3.0 | 6.0 | 0.00 | 0.00 | 0.00 | 32 | 1019.3 |
| 20260503174559 | 62 | 142 | 2.0 | 13.0 | 0.00 | 0.00 | 0.00 | 32 | 1019.4 |
| 20260503174055 | 61 | 258 | 5.0 | 7.0 | 0.00 | 0.00 | 0.00 | 34 | 1019.5 |
| 20260503173550 | 61 | 198 | 4.0 | 7.0 | 0.00 | 0.00 | 0.00 | 33 | 1019.6 |
| 20260503173047 | 61 | 199 | 1.0 | 3.0 | 0.00 | 0.00 | 0.00 | 33 | 1019.6 |
| 20260503172544 | 60 | 218 | 2.0 | 4.0 | 0.00 | 0.00 | 0.00 | 33 | 1019.6 |
| 20260503172042 | 61 | 303 | 6.0 | 9.0 | 0.00 | 0.00 | 0.00 | 34 | 1019.6 |
| 20260503171538 | 61 | 46 | 4.0 | 6.0 | 0.00 | 0.00 | 0.00 | 33 | 1019.5 |
| 20260503171035 | 61 | 138 | 1.0 | 4.0 | 0.00 | 0.00 | 0.00 | 31 | 1019.6 |
| 20260503170531 | 60 | 210 | 3.0 | 4.0 | 0.00 | 0.00 | 0.00 | 33 | 1019.9 |
| 20260503150924 | 55 | 334 | 1.0 | 3.0 | 0.00 | 0.00 | 0.00 | 39 | 1020.9 |
| 20260503150421 | 55 | 60 | 5.0 | 10.0 | 0.00 | 0.00 | 0.00 | 40 | 1021.0 |